Location: Biltmore Gardens
(41.6070°N, 83.4666°W)
Time: 15:15:05
(UTC+00:00)

Cosmos 1602 - Pass Details

Date: 14 July 2020
Orbit: 515 x 533 km, 82.5° (Epoch: 12 August)

Event Time Altitude Azimuth Distance (km) Brightness Sun altitude
Exits shadow 06:38:00 52° 23° (NNE) 650 4.4 -25.4°
Drops below altitude 10° 06:41:00 10° 11° (N) 1,758 7.4 -25.2°
Sets 06:43:09 0° 10° (N) 2,654 8.7 -25.1°
